Regional Weather Roundup
Issued by NWS Nashville, TN

Home | Current Version | Previous Version | Text Only | Print | Product List | Glossary On
Versions: 1 2 3 4 5 6 7 8 9 10 11 12 13 14 15 16 17 18 19 20 21 22 23 24 25 26 27 28 29 30 31 32 33 34 35 36 37 38 39 40 41 42 43 44 45 46 47 48 49 50
000
ASUS44 KOHX 070610
RWROHX
MIDDLE TENNESSEE HOURLY WEATHER ROUNDUP
NATIONAL WEATHER SERVICE NASHVILLE TN
1200 AM CST SUN FEB 07 2016

NOTE: "FAIR" INDICATES FEW OR NO CLOUDS BELOW 12,000 FEET WITH
NO SIGNIFICANT WEATHER AND/OR OBSTRUCTIONS TO VISIBILITY.

* THESE REPORTS ARE NOT UNDER NWS QUALITY CONTROL AND MAY NOT
  REPORT WEATHER SUCH AS PRECIPITATION AND FOG.


TNZ005>011-023>034-057-059-062>066-078-080-070700
...NORTHERN MIDDLE TENNESSEE...

CITY           SKY/WX    TMP DP  RH WIND       PRES   REMARKS
CLARKSVILLE    CLEAR     29  24  82 CALM      30.26F
CROSSVILLE     CLEAR     31  18  58 CALM      30.23F
DICKSON        CLEAR     34  19  55 W3        30.25F
LEBANON        CLEAR     27  23  84 CALM      30.25S
LIVINGSTON     CLEAR     36  19  50 CALM      30.24F
NASHVILLE      CLEAR     34  24  67 CALM      30.27F
PORTLAND       CLEAR    N/A N/A N/A S3        30.24F
SMYRNA         CLEAR     27  25  92 CALM      30.28F
SPARTA         CLEAR     25  23  93 CALM      30.24S
$$
TNZ056-058-060-061-075>077-079-093>097-070700
...SOUTHERN MIDDLE TENNESSEE...

CITY           SKY/WX    TMP DP  RH WIND       PRES   REMARKS
COLUMBIA       CLEAR     30  30 100 CALM      30.26F
FAYETTEVILLE   PTCLDY    36  28  75 CALM      30.25F
LEWISBURG      CLEAR     26  21  81 CALM      30.27F
MCMINNVILLE    CLEAR     30  27  86 CALM      30.24F
SHELBYVILLE    CLEAR     28  27  93 CALM      30.27S
TULLAHOMA        N/A     28  25  86 CALM      30.25F
WINCHESTER     CLEAR     30  27  86 CALM      30.26S
$$


...KEY TO REMARKS...
VSB - VISIBILITY IN MILES
WCI - WIND CHILL INDEX
HX  - HEAT INDEX




USA.gov is the U.S. government's official web portal to all federal, state and local government web resources and services.